| time (UTC) | temp F | wind direction | speed knots | gust knots | rain 1hr in | rain 24hr in | rain mn in | humidity % | barometer mb |
| 20260903022955 | 60 | 114 | 0.9 | 1.7 | 0.00 | 0.00 | 0.00 | 78 | 1024.5 |
| 20260903021957 | 60 | 103 | 0.0 | 1.7 | 0.00 | 0.00 | 0.00 | 78 | 1024.5 |
| 20260903020959 | 60 | 0.0 | 0.9 | 0.00 | 0.00 | 0.00 | 78 | 1024.5 | |
| 20260903015957 | 60 | 0.9 | 1.7 | 0.00 | 0.00 | 0.00 | 78 | 1024.5 | |
| 20260903014954 | 61 | 0.0 | 1.7 | 0.00 | 0.00 | 0.00 | 76 | 1024.4 | |
| 20260903013957 | 61 | 0.0 | 0.9 | 0.00 | 0.00 | 0.00 | 76 | 1024.4 | |
| 20260903012957 | 62 | 0.0 | 1.7 | 0.00 | 0.00 | 0.00 | 74 | 1024.4 | |
| 20260903011959 | 62 | 115 | 0.0 | 1.7 | 0.00 | 0.00 | 0.00 | 74 | 1024.4 |
| 20260903010958 | 62 | 0.9 | 2.6 | 0.00 | 0.00 | 0.00 | 74 | 1024.4 | |
| 20260903005959 | 62 | 0.9 | 1.7 | 0.00 | 0.00 | 0.00 | 72 | 1024.3 | |
| 20260903004955 | 63 | 0.0 | 1.7 | 0.00 | 0.00 | 0.00 | 69 | 1024.2 | |
| 20260903003956 | 64 | 275 | 0.9 | 2.6 | 0.00 | 0.00 | 0.00 | 68 | 1024.2 |
| 20260903001957 | 64 | 220 | 0.9 | 4.3 | 0.00 | 0.00 | 0.00 | 67 | 1024.3 |
| 20260903000958 | 64 | 166 | 0.9 | 2.6 | 0.00 | 0.00 | 0.00 | 66 | 1024.3 |
| 20260902235958 | 65 | 0.0 | 2.6 | 0.00 | 0.00 | 0.00 | 67 | 1024.3 | |
| 20260902234957 | 65 | 0.9 | 1.7 | 0.00 | 0.00 | 0.00 | 66 | 1024.4 | |
| 20260902233957 | 65 | 188 | 0.0 | 1.7 | 0.00 | 0.00 | 0.00 | 65 | 1024.3 |
| 20260902233000 | 66 | 209 | 0.9 | 1.7 | 0.00 | 0.00 | 0.00 | 63 | 1024.4 |
| 20260902232000 | 66 | 174 | 0.9 | 1.7 | 0.00 | 0.00 | 0.00 | 62 | 1024.3 |
| 20260902230959 | 66 | 201 | 0.0 | 1.7 | 0.00 | 0.00 | 0.00 | 62 | 1024.3 |
| 20260902230000 | 67 | 135 | 0.0 | 0.9 | 0.00 | 0.00 | 0.00 | 62 | 1024.3 |
| 20260902223957 | 67 | 237 | 1.7 | 3.5 | 0.00 | 0.00 | 0.00 | 61 | 1024.3 |
| 20260902222957 | 67 | 242 | 0.9 | 2.6 | 0.00 | 0.00 | 0.00 | 61 | 1024.4 |
| 20260902221958 | 67 | 249 | 0.9 | 2.6 | 0.00 | 0.00 | 0.00 | 60 | 1024.3 |
| 20260902220957 | 67 | 256 | 0.9 | 1.7 | 0.00 | 0.00 | 0.00 | 60 | 1024.3 |
| 20260902215957 | 67 | 282 | 0.0 | 1.7 | 0.00 | 0.00 | 0.00 | 60 | 1024.2 |
| 20260902214957 | 67 | 334 | 0.0 | 1.7 | 0.00 | 0.00 | 0.00 | 60 | 1024.2 |
| 20260902213958 | 67 | 1.7 | 2.6 | 0.00 | 0.00 | 0.00 | 59 | 1024.1 | |
| 20260902212956 | 68 | 304 | 1.7 | 2.6 | 0.00 | 0.00 | 0.00 | 59 | 1024.0 |
| 20260902211956 | 68 | 278 | 1.7 | 3.5 | 0.00 | 0.00 | 0.00 | 59 | 1024.0 |
| 20260902210959 | 68 | 299 | 1.7 | 3.5 | 0.00 | 0.00 | 0.00 | 58 | 1024.0 |
| 20260902205959 | 68 | 289 | 1.7 | 3.5 | 0.00 | 0.00 | 0.00 | 58 | 1023.8 |
| 20260902204959 | 68 | 314 | 1.7 | 5.2 | 0.00 | 0.00 | 0.00 | 57 | 1023.7 |
| 20260902204003 | 68 | 288 | 1.7 | 3.5 | 0.00 | 0.00 | 0.00 | 57 | 1023.7 |
| 20260902202957 | 69 | 306 | 1.7 | 4.3 | 0.00 | 0.00 | 0.00 | 57 | 1023.7 |
| 20260902202000 | 69 | 305 | 1.7 | 4.3 | 0.00 | 0.00 | 0.00 | 56 | 1023.7 |
| 20260902200958 | 69 | 314 | 1.7 | 3.5 | 0.00 | 0.00 | 0.00 | 55 | 1023.6 |
| 20260902200002 | 69 | 272 | 1.7 | 3.5 | 0.00 | 0.00 | 0.00 | 54 | 1023.6 |
| 20260902194958 | 70 | 289 | 2.6 | 6.1 | 0.00 | 0.00 | 0.00 | 53 | 1023.6 |
| 20260902194002 | 70 | 303 | 1.7 | 3.5 | 0.00 | 0.00 | 0.00 | 54 | 1023.5 |
| 20260902192959 | 70 | 325 | 1.7 | 5.2 | 0.00 | 0.00 | 0.00 | 53 | 1023.5 |
| 20260902191957 | 71 | 315 | 1.7 | 5.2 | 0.00 | 0.00 | 0.00 | 52 | 1023.3 |
| 20260902191001 | 71 | 299 | 1.7 | 4.3 | 0.00 | 0.00 | 0.00 | 52 | 1023.3 |
| 20260902190002 | 71 | 286 | 2.6 | 7.0 | 0.00 | 0.00 | 0.00 | 52 | 1023.2 |
| 20260902185003 | 72 | 295 | 2.6 | 7.0 | 0.00 | 0.00 | 0.00 | 51 | 1023.0 |
| 20260902183958 | 72 | 332 | 3.5 | 8.7 | 0.00 | 0.00 | 0.00 | 51 | 1022.9 |
| 20260902183004 | 72 | 270 | 1.7 | 4.3 | 0.00 | 0.00 | 0.00 | 51 | 1022.7 |
| 20260902181959 | 73 | 297 | 0.9 | 1.7 | 0.00 | 0.00 | 0.00 | 50 | 1022.6 |
| 20260902181005 | 73 | 0.0 | 1.7 | 0.00 | 0.00 | 0.00 | 49 | 1022.4 | |
| 20260902175959 | 73 | 0.9 | 1.7 | 0.00 | 0.00 | 0.00 | 49 | 1022.4 | |
| 20260902174957 | 73 | 302 | 1.7 | 5.2 | 0.00 | 0.00 | 0.00 | 48 | 1022.3 |
| 20260902174003 | 74 | 287 | 1.7 | 4.3 | 0.00 | 0.00 | 0.00 | 47 | 1022.0 |
| 20260902173002 | 74 | 316 | 1.7 | 4.3 | 0.00 | 0.00 | 0.00 | 46 | 1022.0 |
| 20260902172012 | 74 | 291 | 1.7 | 5.2 | 0.00 | 0.00 | 0.00 | 45 | 1022.2 |
| 20260902170958 | 74 | 299 | 1.7 | 5.2 | 0.00 | 0.00 | 0.00 | 45 | 1022.0 |
| 20260902165958 | 74 | 284 | 1.7 | 4.3 | 0.00 | 0.00 | 0.00 | 45 | 1022.0 |
| 20260902165003 | 75 | 248 | 2.6 | 6.1 | 0.00 | 0.00 | 0.00 | 43 | 1022.0 |
| 20260902163958 | 76 | 286 | 2.6 | 6.1 | 0.00 | 0.00 | 0.00 | 41 | 1022.0 |
| 20260902163002 | 76 | 269 | 3.5 | 7.8 | 0.00 | 0.00 | 0.00 | 41 | 1022.0 |
| 20260902162000 | 76 | 261 | 2.6 | 6.1 | 0.00 | 0.00 | 0.00 | 40 | 1022.0 |
| 20260902161000 | 77 | 286 | 3.5 | 9.6 | 0.00 | 0.00 | 0.00 | 40 | 1022.0 |
| 20260902160000 | 78 | 247 | 2.6 | 7.0 | 0.00 | 0.00 | 0.00 | 39 | 1021.9 |
| 20260902155000 | 77 | 242 | 3.5 | 8.7 | 0.00 | 0.00 | 0.00 | 40 | 1021.9 |
| 20260902154003 | 77 | 293 | 3.5 | 10.4 | 0.00 | 0.00 | 0.00 | 39 | 1021.9 |
| 20260902152959 | 77 | 208 | 3.5 | 9.6 | 0.00 | 0.00 | 0.00 | 40 | 1022.0 |
| 20260902151959 | 78 | 195 | 3.5 | 10.4 | 0.00 | 0.00 | 0.00 | 39 | 1022.2 |
| 20260902151005 | 77 | 272 | 4.3 | 8.7 | 0.00 | 0.00 | 0.00 | 40 | 1022.2 |
| 20260902150004 | 78 | 287 | 2.6 | 7.8 | 0.00 | 0.00 | 0.00 | 39 | 1022.2 |
| 20260902145003 | 78 | 294 | 4.3 | 9.6 | 0.00 | 0.00 | 0.00 | 39 | 1022.3 |
| 20260902143959 | 78 | 231 | 4.3 | 10.4 | 0.00 | 0.00 | 0.00 | 40 | 1022.3 |
| 20260902143005 | 78 | 219 | 3.5 | 8.7 | 0.00 | 0.00 | 0.00 | 40 | 1022.3 |
| 20260902142000 | 77 | 213 | 4.3 | 11.3 | 0.00 | 0.00 | 0.00 | 42 | 1022.3 |
| 20260902141006 | 77 | 228 | 4.3 | 12.2 | 0.00 | 0.00 | 0.00 | 42 | 1022.4 |
| 20260902140004 | 78 | 292 | 4.3 | 11.3 | 0.00 | 0.00 | 0.00 | 41 | 1022.4 |
| 20260902135010 | 78 | 204 | 4.3 | 11.3 | 0.00 | 0.00 | 0.00 | 40 | 1022.5 |
| 20260902134008 | 78 | 233 | 4.3 | 12.2 | 0.00 | 0.00 | 0.00 | 40 | 1022.5 |
| 20260902133011 | 78 | 308 | 5.2 | 11.3 | 0.00 | 0.00 | 0.00 | 39 | 1022.6 |
| 20260902132002 | 78 | 221 | 3.5 | 7.8 | 0.00 | 0.00 | 0.00 | 41 | 1022.7 |
| 20260902131011 | 77 | 253 | 2.6 | 7.8 | 0.00 | 0.00 | 0.00 | 43 | 1022.7 |
| 20260902130006 | 76 | 247 | 4.3 | 8.7 | 0.00 | 0.00 | 0.00 | 45 | 1022.7 |
| 20260902124959 | 77 | 297 | 4.3 | 10.4 | 0.00 | 0.00 | 0.00 | 42 | 1022.7 |
| 20260902124005 | 77 | 233 | 5.2 | 13.9 | 0.00 | 0.00 | 0.00 | 42 | 1022.8 |
| 20260902123004 | 77 | 225 | 5.2 | 13.9 | 0.00 | 0.00 | 0.00 | 42 | 1022.9 |
| 20260902122006 | 77 | 272 | 5.2 | 12.2 | 0.00 | 0.00 | 0.00 | 43 | 1023.1 |
| 20260902121001 | 77 | 252 | 4.3 | 13.9 | 0.00 | 0.00 | 0.00 | 42 | 1023.1 |
| 20260902115956 | 75 | 298 | 3.5 | 9.6 | 0.00 | 0.00 | 0.00 | 45 | 1023.2 |
| 20260902114955 | 75 | 277 | 3.5 | 10.4 | 0.00 | 0.00 | 0.00 | 47 | 1023.4 |
| 20260902113956 | 75 | 200 | 2.6 | 7.8 | 0.00 | 0.00 | 0.00 | 47 | 1023.3 |
| 20260902112955 | 74 | 203 | 2.6 | 7.8 | 0.00 | 0.00 | 0.00 | 48 | 1023.4 |
| 20260902111955 | 75 | 294 | 2.6 | 7.0 | 0.00 | 0.00 | 0.00 | 46 | 1023.5 |
| 20260902110954 | 74 | 223 | 2.6 | 7.0 | 0.00 | 0.00 | 0.00 | 49 | 1023.6 |
| 20260902105957 | 74 | 1.7 | 5.2 | 0.00 | 0.00 | 0.00 | 49 | 1023.7 | |
| 20260902104954 | 73 | 233 | 1.7 | 5.2 | 0.00 | 0.00 | 0.00 | 54 | 1023.8 |
| 20260902103954 | 72 | 186 | 3.5 | 6.1 | 0.00 | 0.00 | 0.00 | 54 | 1023.8 |
| 20260902102955 | 72 | 168 | 2.6 | 6.1 | 0.00 | 0.00 | 0.00 | 55 | 1023.8 |
| 20260902101955 | 72 | 177 | 1.7 | 6.1 | 0.00 | 0.00 | 0.00 | 55 | 1024.0 |
| 20260902100953 | 72 | 102 | 2.6 | 7.0 | 0.00 | 0.00 | 0.00 | 56 | 1024.1 |
| 20260902094956 | 70 | 155 | 1.7 | 6.1 | 0.00 | 0.00 | 0.00 | 59 | 1024.2 |
| 20260902094011 | 69 | 143 | 2.6 | 7.0 | 0.00 | 0.00 | 0.00 | 59 | 1024.1 |
| 20260902092956 | 69 | 126 | 2.6 | 6.1 | 0.00 | 0.00 | 0.00 | 59 | 1024.1 |
| 20260902090954 | 70 | 65 | 1.7 | 4.3 | 0.00 | 0.00 | 0.00 | 59 | 1024.2 |
| 20260902085954 | 70 | 136 | 0.9 | 3.5 | 0.00 | 0.00 | 0.00 | 59 | 1024.2 |
| 20260902084956 | 69 | 206 | 0.9 | 5.2 | 0.00 | 0.00 | 0.00 | 61 | 1024.2 |
| 20260902082955 | 67 | 206 | 0.9 | 3.5 | 0.00 | 0.00 | 0.00 | 63 | 1024.2 |
| 20260902081954 | 67 | 235 | 0.9 | 3.5 | 0.00 | 0.00 | 0.00 | 62 | 1024.2 |
| 20260902080955 | 66 | 30 | 1.7 | 4.3 | 0.00 | 0.00 | 0.00 | 64 | 1024.0 |
| 20260902074958 | 66 | 126 | 1.7 | 5.2 | 0.00 | 0.00 | 0.00 | 64 | 1024.0 |
| 20260902073958 | 65 | 211 | 1.7 | 3.5 | 0.00 | 0.00 | 0.00 | 65 | 1024.0 |
| 20260902072959 | 64 | 217 | 1.7 | 4.3 | 0.00 | 0.00 | 0.00 | 66 | 1024.0 |
| 20260902071957 | 65 | 125 | 1.7 | 4.3 | 0.00 | 0.00 | 0.00 | 65 | 1024.1 |
| 20260902070955 | 64 | 190 | 1.7 | 3.5 | 0.00 | 0.00 | 0.00 | 67 | 1024.1 |
| 20260902065955 | 63 | 191 | 0.9 | 3.5 | 0.00 | 0.00 | 0.00 | 69 | 1024.1 |
| 20260902064959 | 63 | 182 | 0.9 | 2.6 | 0.00 | 0.00 | 0.00 | 69 | 1024.0 |
| 20260902062958 | 62 | 189 | 1.7 | 4.3 | 0.00 | 0.00 | 0.00 | 72 | 1024.0 |
| 20260902061956 | 61 | 214 | 1.7 | 3.5 | 0.00 | 0.00 | 0.00 | 74 | 1024.1 |
| 20260902060955 | 60 | 207 | 1.7 | 3.5 | 0.00 | 0.00 | 0.00 | 75 | 1024.1 |
| 20260902055957 | 59 | 131 | 1.7 | 3.5 | 0.00 | 0.00 | 0.00 | 77 | 1024.0 |
| 20260902054956 | 59 | 153 | 1.7 | 2.6 | 0.00 | 0.00 | 0.00 | 78 | 1023.8 |
| 20260902053956 | 58 | 136 | 1.7 | 3.5 | 0.00 | 0.00 | 0.00 | 80 | 1023.7 |
| 20260902051957 | 57 | 214 | 0.9 | 3.5 | 0.00 | 0.00 | 0.00 | 83 | 1023.6 |
| 20260902050959 | 57 | 184 | 0.9 | 2.6 | 0.00 | 0.00 | 0.00 | 84 | 1023.6 |
| 20260902045954 | 56 | 104 | 0.9 | 2.6 | 0.00 | 0.00 | 0.00 | 84 | 1023.6 |
| 20260902044956 | 56 | 203 | 0.9 | 2.6 | 0.00 | 0.00 | 0.00 | 85 | 1023.7 |
| 20260902043958 | 56 | 146 | 0.9 | 2.6 | 0.00 | 0.00 | 0.00 | 85 | 1023.6 |
| 20260902042958 | 56 | 116 | 0.9 | 2.6 | 0.00 | 0.00 | 0.00 | 85 | 1023.6 |
| 20260902041959 | 56 | 118 | 0.9 | 2.6 | 0.00 | 0.00 | 0.00 | 85 | 1023.5 |
| 20260902040956 | 57 | 106 | 0.9 | 1.7 | 0.00 | 0.00 | 0.00 | 83 | 1023.6 |
| 20260902035956 | 57 | 140 | 0.9 | 1.7 | 0.00 | 0.00 | 0.00 | 83 | 1023.6 |
| 20260902034955 | 57 | 191 | 0.9 | 1.7 | 0.00 | 0.00 | 0.00 | 83 | 1023.6 |
| 20260902033959 | 57 | 142 | 0.9 | 2.6 | 0.00 | 0.00 | 0.00 | 83 | 1023.6 |
| 20260902032956 | 57 | 169 | 0.9 | 2.6 | 0.00 | 0.00 | 0.00 | 83 | 1023.7 |
| 20260902032000 | 57 | 191 | 0.9 | 2.6 | 0.00 | 0.00 | 0.00 | 83 | 1023.7 |
| 20260902030957 | 57 | 144 | 0.9 | 1.7 | 0.00 | 0.00 | 0.00 | 82 | 1023.7 |
| 20260902025959 | 58 | 136 | 0.9 | 1.7 | 0.00 | 0.00 | 0.00 | 82 | 1023.7 |
| 20260902024955 | 58 | 0.9 | 1.7 | 0.00 | 0.00 | 0.00 | 82 | 1023.7 | |
| 20260902023956 | 58 | 133 | 0.9 | 1.7 | 0.00 | 0.00 | 0.00 | 82 | 1023.8 |